DW7589 Weather Reports


Display with metric or nautical units.
time (UTC)temp
F
wind
direction
speed
MPH
gust
MPH
rain 1hr
in
rain 24hr
in
rain mn
in
humidity
%
barometer
mb
20260504050427 65 0 0.0 0.0 0.00 0.00 0.00 65 1016.0
20260504045928 65 0 0.0 0.0 0.00 0.00 0.00 65 1016.0
20260504045427 65 0 0.0 0.0 0.00 0.00 0.00 65 1016.1
20260504044427 65 0 0.0 0.0 0.00 0.00 0.00 64 1016.2
20260504043927 66 0 0.0 0.0 0.00 0.00 0.00 64 1016.2
20260504043428 66 0 0.0 0.0 0.00 0.00 0.00 63 1016.2
20260504042927 66 0 0.0 0.0 0.00 0.00 0.00 63 1016.2
20260504042428 66 0 0.0 0.0 0.00 0.00 0.00 62 1016.2
20260504041427 67 0 0.0 0.0 0.00 0.00 0.00 62 1016.4
20260504040927 67 0 0.0 0.0 0.00 0.00 0.00 61 1016.4
20260504040427 67 0 0.0 0.0 0.00 0.00 0.00 61 1016.3
20260504035927 67 0 0.0 0.0 0.00 0.00 0.00 61 1016.4
20260504035427 67 0 0.0 0.0 0.00 0.00 0.00 61 1016.4
20260504034927 67 0 0.0 0.0 0.00 0.00 0.00 60 1016.5
20260504034427 68 0 0.0 0.0 0.00 0.00 0.00 60 1016.5
20260504033927 68 0 0.0 0.0 0.00 0.00 0.00 60 1016.4
20260504033427 68 0 0.0 0.0 0.00 0.00 0.00 60 1016.4
20260504032927 68 0 0.0 0.0 0.00 0.00 0.00 60 1016.4
20260504032426 68 0 0.0 0.0 0.00 0.00 0.00 60 1016.4
20260504031927 68 0 0.0 0.0 0.00 0.00 0.00 60 1016.2
20260504031427 68 0 0.0 0.0 0.00 0.00 0.00 60 1016.2
20260504030927 68 0 0.0 0.0 0.00 0.00 0.00 59 1016.3
20260504030428 68 0 0.0 0.0 0.00 0.00 0.00 60 1016.1
20260504025929 68 0 0.0 0.0 0.00 0.00 0.00 60 1016.1
20260504024927 68 0 0.0 0.0 0.00 0.00 0.00 59 1016.2
20260504024427 68 0 0.0 0.0 0.00 0.00 0.00 59 1016.3
20260504023927 69 0 0.0 0.0 0.00 0.00 0.00 59 1016.3
20260504023427 69 0 0.0 0.0 0.00 0.00 0.00 59 1016.2
20260504022928 69 0 0.0 0.0 0.00 0.00 0.00 59 1016.2
20260504022427 69 0 0.0 0.0 0.00 0.00 0.00 59 1016.2
20260504021927 69 0 0.0 0.0 0.00 0.00 0.00 59 1016.2
20260504021427 69 0 0.0 0.0 0.00 0.00 0.00 58 1016.1
20260504020928 69 0 0.0 0.0 0.00 0.00 0.00 58 1016.1
20260504020428 69 0 0.0 0.0 0.00 0.00 0.00 58 1016.1
20260504015928 69 0 0.0 0.0 0.00 0.00 0.00 57 1016.0
20260504014928 70 0 0.0 0.0 0.00 0.00 0.00 56 1015.9
20260504013928 70 0 0.0 0.0 0.00 0.00 0.00 54 1015.8
20260504013428 71 0 0.0 0.0 0.00 0.00 0.00 53 1015.8
20260504012927 71 0 0.0 0.0 0.00 0.00 0.00 52 1015.8
20260504012427 71 0 0.0 0.0 0.00 0.00 0.00 51 1015.9
20260504011428 72 0 0.0 0.0 0.00 0.00 0.00 50 1015.9
20260504010427 72 0 0.0 0.0 0.00 0.00 0.00 48 1015.9
20260504005927 73 0 0.0 0.0 0.00 0.00 0.00 47 1015.9
20260504005427 73 0 0.0 0.0 0.00 0.00 0.00 46 1015.8
20260504004927 73 0 0.0 0.0 0.00 0.00 0.00 45 1015.8
20260504004429 74 0 0.0 0.0 0.00 0.00 0.00 44 1015.8
20260504003427 75 0 0.0 0.0 0.00 0.00 0.00 42 1016.0
20260504002929 75 0 0.0 0.0 0.00 0.00 0.00 41 1016.1
20260504002428 76 0 0.0 0.0 0.00 0.00 0.00 41 1016.0
20260504001927 76 0 0.0 0.0 0.00 0.00 0.00 40 1015.9
20260504001427 76 0 0.0 0.0 0.00 0.00 0.00 40 1016.0
20260504000927 76 0 0.0 0.0 0.00 0.00 0.00 40 1016.0
20260504000431 77 0 0.0 0.0 0.00 0.00 0.00 40 1016.1
20260503235927 77 0 0.0 0.0 0.00 0.00 0.00 39 1016.2
20260503235427 77 0 0.0 0.0 0.00 0.00 0.00 39 1016.2
20260503234927 77 0 0.0 0.0 0.00 0.00 0.00 40 1016.3
20260503234428 77 0 0.0 0.0 0.00 0.00 0.00 40 1016.3
20260503233927 77 0 0.0 0.0 0.00 0.00 0.00 40 1016.3
20260503233427 77 0 0.0 0.0 0.00 0.00 0.00 41 1016.4
20260503232927 77 0 0.0 0.0 0.00 0.00 0.00 40 1016.4
20260503232427 77 0 0.0 0.0 0.00 0.00 0.00 40 1016.4
20260503231928 78 0 0.0 0.0 0.00 0.00 0.00 39 1016.5
20260503231428 78 0 0.0 0.0 0.00 0.00 0.00 39 1016.5
20260503230928 78 0 0.0 0.0 0.00 0.00 0.00 40 1016.5
20260503230428 78 0 0.0 9.0 0.00 0.00 0.00 39 1016.5
20260503225927 78 0 0.0 9.0 0.00 0.00 0.00 38 1016.5
20260503225427 78 0 0.0 5.0 0.00 0.00 0.00 40 1016.6
20260503224928 78 169 1.0 5.0 0.00 0.00 0.00 39 1016.8
20260503224428 78 164 1.0 5.0 0.00 0.00 0.00 37 1016.7
20260503223927 78 165 1.0 5.0 0.00 0.00 0.00 36 1016.8
20260503223428 78 166 1.0 7.0 0.00 0.00 0.00 36 1016.8
20260503222928 78 164 1.0 7.0 0.00 0.00 0.00 36 1016.7
20260503221928 79 169 2.0 10.0 0.00 0.00 0.00 35 1016.9
20260503221428 79 156 2.0 10.0 0.00 0.00 0.00 34 1016.8
20260503220927 79 152 3.0 9.0 0.00 0.00 0.00 34 1017.0
20260503220429 79 155 4.0 8.0 0.00 0.00 0.00 36 1017.0
20260503215927 79 157 3.0 10.0 0.00 0.00 0.00 34 1017.0
20260503215428 79 162 3.0 10.0 0.00 0.00 0.00 35 1017.0
20260503214428 79 153 5.0 10.0 0.00 0.00 0.00 34 1017.3
20260503212929 79 164 3.0 10.0 0.00 0.00 0.00 34 1017.5
20260503212428 79 164 3.0 11.0 0.00 0.00 0.00 36 1017.6
20260503211428 80 162 2.0 8.0 0.00 0.00 0.00 36 1017.9
20260503210928 80 162 3.0 9.0 0.00 0.00 0.00 35 1018.0
20260503210427 80 162 3.0 9.0 0.00 0.00 0.00 34 1018.0
20260503205928 80 166 1.0 6.0 0.00 0.00 0.00 35 1018.0
20260503203928 80 162 3.0 9.0 0.00 0.00 0.00 33 1018.3
20260503203429 80 173 2.0 8.0 0.00 0.00 0.00 34 1018.5
20260503202428 80 194 2.0 14.0 0.00 0.00 0.00 36 1018.6
20260503201928 80 196 2.0 7.0 0.00 0.00 0.00 35 1018.6
20260503201427 80 170 2.0 10.0 0.00 0.00 0.00 34 1018.9
20260503200427 79 167 2.0 8.0 0.00 0.00 0.00 34 1019.0
20260503195927 80 153 2.0 8.0 0.00 0.00 0.00 36 1018.9
20260503195428 79 163 2.0 8.0 0.00 0.00 0.00 33 1019.0
20260503194927 80 183 2.0 7.0 0.00 0.00 0.00 34 1019.2
20260503193929 79 161 3.0 7.0 0.00 0.00 0.00 32 1019.3
20260503192928 79 152 3.0 9.0 0.00 0.00 0.00 33 1019.4
20260503192427 79 152 4.0 9.0 0.00 0.00 0.00 33 1019.4
20260503191928 79 151 3.0 7.0 0.00 0.00 0.00 31 1019.4
20260503191428 79 149 2.0 7.0 0.00 0.00 0.00 35 1019.5
20260503190929 79 158 2.0 8.0 0.00 0.00 0.00 36 1019.7
20260503190429 79 150 2.0 8.0 0.00 0.00 0.00 35 1019.7
20260503185928 79 150 2.0 7.0 0.00 0.00 0.00 34 1019.8
20260503185428 79 154 3.0 8.0 0.00 0.00 0.00 36 1020.0
20260503184930 79 156 3.0 8.0 0.00 0.00 0.00 35 1020.0
20260503184428 79 167 2.0 9.0 0.00 0.00 0.00 38 1020.2
20260503183929 79 205 1.0 9.0 0.00 0.00 0.00 37 1020.1
20260503183428 78 202 1.0 8.0 0.00 0.00 0.00 38 1020.2
20260503182928 78 168 2.0 8.0 0.00 0.00 0.00 38 1020.4
20260503182428 79 149 3.0 8.0 0.00 0.00 0.00 38 1020.5
20260503181928 78 152 3.0 8.0 0.00 0.00 0.00 38 1020.6
20260503181429 78 157 3.0 7.0 0.00 0.00 0.00 41 1020.7
20260503180429 78 164 2.0 11.0 0.00 0.00 0.00 39 1020.8
20260503175928 78 196 2.0 5.0 0.00 0.00 0.00 41 1020.9
20260503174927 78 176 2.0 8.0 0.00 0.00 0.00 41 1021.0
20260503174428 78 212 1.0 8.0 0.00 0.00 0.00 41 1021.1
20260503173928 78 225 2.0 9.0 0.00 0.00 0.00 40 1021.2
20260503173428 78 212 2.0 9.0 0.00 0.00 0.00 41 1021.4
20260503172928 77 188 3.0 10.0 0.00 0.00 0.00 40 1021.4
20260503172427 77 191 3.0 10.0 0.00 0.00 0.00 42 1021.6
20260503171930 77 200 1.0 9.0 0.00 0.00 0.00 43 1021.6
20260503171427 77 223 2.0 8.0 0.00 0.00 0.00 41 1021.6
20260503170929 77 225 2.0 8.0 0.00 0.00 0.00 46 1021.7
20260503150428 71 220 1.0 7.0 0.00 0.00 0.00 56 1022.5
20260503130928 58 0 0.0 3.0 0.00 0.00 0.00 81 1021.7
20260503130428 57 250 1.0 3.0 0.00 0.00 0.00 81 1021.6
20260503110430 55 240 1.0 5.0 0.00 0.00 0.00 82 1020.5
20260503090428 56 241 1.0 2.0 0.00 0.00 0.00 81 1020.4
20260503081429 56 0 0.0 2.0 0.00 0.00 0.00 79 1020.2
20260503080928 56 0 0.0 2.0 0.00 0.00 0.00 79 1020.2
20260503080429 56 0 0.0 2.0 0.00 0.00 0.00 79 1020.2
20260503072929 57 251 1.0 3.0 0.00 0.00 0.00 78 1020.3